Location: LDNL
(36.4545°S, 141.6685°E)
Time: 17:48:33
(UTC+10:00)

Tiros 1 despin weight - Pass Details

Date: 30 January 2022
Orbit: 592 x 639 km, 48.2° (Epoch: 28 May)

Event Time Altitude Azimuth Distance (km) Brightness Sun altitude
Exits shadow 03:39:54 27° 93° (E) 1,218 ? -29.5°
Drops below altitude 10° 03:42:17 10° 112° (ESE) 2,000 ? -29.2°
Sets 03:44:42 0° 119° (ESE) 2,903 ? -29.0°
